sat.trackr.live / text

‹ back to catalog

STARLINK-36939

NORAD 68034 · 2026-040V

PAYLOAD ACTIVE UNKNOWN

§ Identity

Operator
Country
US
Launch date
2026-03-01
Launch site
AFWTR
Launch vehicle
Mass (kg)
RCS (m²)

Purposes: comms

External: N2YO · Heavens-Above · Gunter

§ Orbital elements

Epoch: 2026-09-20T03:05:32.322048Z

Period
93.91 min
Inclination
97.2846°
Eccentricity
0.0002089
Mean motion
15.33455916 rev/d
Perigee alt
464.1 km
Apogee alt
466.9 km
Semi-major
6,843.6 km
B*
5.5044e-4
RAAN
210.5119°
Arg perigee
97.4214°
Mean anomaly
262.7266°
Rev number
3,126

§ Raw data

STARLINK-369391 68034U 26040V   26263.12884632  .00017744  00000+0  55044-3 0  99992 68034  97.2846 210.5119 0002089  97.4214 262.7266 15.33455916 31269

JSON: /api/v1/satellites/68034 · /tle

For live sub-satellite position, see the globe view (requires WebGL).

§ Visibility from observer

Set your observer location to see the next 7 days of passes ≥ 10°. The values pass through the URL so the page stays shareable.

No JS? Fill the form by hand. The geolocation button needs JavaScript.